Location: Wildcat Hills Observatory
(41.6350°N, 103.6812°W)
Time: 16:31:53
(UTC-06:00)

Cosmos 1634 Rocket - Visible Passes

Search period start: 28 July 2014 00:00
Search period end: 07 August 2014 00:00
Orbit: 960 x 993 km, 82.9° (Epoch: 28 July)

Date Brightness Start Highest point End Pass type
(mag) Time Alt. Az. Time Alt. Az. Time Alt. Az.
28 Jul 5.3 02:28:57 10° N 02:34:31 34° ENE 02:39:12 14° SE visible
28 Jul 4.6 04:14:19 10° NNW 04:19:53 36° W 04:23:50 18° SW visible
29 Jul 4.4 02:54:13 10° N 03:00:21 60° E 03:04:03 24° SSE visible
29 Jul 5.3 04:40:52 10° NW 04:45:08 20° W 04:48:41 12° WSW visible
30 Jul 6.2 01:36:07 10° NNE 01:39:53 16° ENE 01:43:37 10° ESE visible
30 Jul 3.9 03:19:48 10° N 03:26:00 76° W 03:28:57 33° S visible
31 Jul 5.5 02:00:39 10° NNE 02:05:58 29° ENE 02:09:15 19° ESE visible
31 Jul 4.4 03:45:44 10° NNW 03:51:29 42° W 03:53:54 29° SW visible
01 Aug 4.5 02:25:49 10° N 02:31:51 52° ENE 02:34:14 34° SE visible
01 Aug 5.2 04:12:07 10° NW 04:16:47 23° W 04:18:53 19° WSW visible
02 Aug 6.3 01:08:09 10° NNE 01:11:17 14° ENE 01:14:24 10° E visible
02 Aug 3.8 02:51:20 10° N 02:57:33 87° W 02:59:15 51° S visible
02 Aug 5.8 04:39:49 10° WNW 04:41:55 12° WNW 04:43:54 10° W visible
03 Aug 5.6 01:32:23 10° NNE 01:37:25 26° ENE 01:39:39 21° ESE visible
03 Aug 4.2 03:17:11 10° NNW 03:23:04 48° W 03:24:18 43° SW visible
04 Aug 4.7 01:57:26 10° N 02:03:21 45° ENE 02:04:43 39° ESE visible
04 Aug 5.0 03:43:26 10° NNW 03:48:25 27° W 03:49:22 25° W visible
05 Aug 6.3 00:40:24 10° NE 00:42:40 12° ENE 00:44:56 10° E visible
05 Aug 3.9 02:22:53 10° N 02:29:06 82° E 02:29:49 70° SSE visible
05 Aug 5.7 04:10:35 10° NW 04:13:36 14° W 04:14:28 14° W visible
06 Aug 5.7 01:04:10 10° NNE 01:08:52 22° ENE 01:10:18 21° E visible
06 Aug 4.0 02:48:39 10° NNW 02:54:39 56° W 02:54:57 55° WSW visible
